[[{"header":{"parameterUnit":"m.s-1","parameterCategory":1,"la1":30.2991,"la2":30.254,"lo1":-89.0895,"lo2":-89.0444,"dy":0.0017,"dx":0.0017,"nx":28,"ny":28,"refTime":"2025-11-13T03:00:00:Z","depth":0,"parameterNumber":2,"parameterNumberName":"U-component_of_WINDS"},"data":[0,0,0,0,0,0,0,0,0,0,0,0,0,0,0,0,0,0,0,0,0,0,0,0,0,0,0,0,0,0,0,0,0,0,0,0,0,0,0,0,0,0,0,0,0,0,0,0,0,0,0,0,0,0,0,0,0,0,-0.1552,-0.1551,0,-0.1505,-0.1504,-0.1504,-0.1466,-0.1466,-0.1466,-0.1465,-0.1416,-0.1415,-0.1414,0,0,0,0,0,0,0,0,0,0,0,0,0,-0.1609,-0.1608,-0.1552,-0.1551,-0.1551,-0.1505,-0.1504,-0.1504,-0.1466,-0.1466,-0.1465,-0.1465,-0.1416,-0.1415,-0.1414,0,0,0,0,0,0,0,0,0,0,0,0,0,-0.1576,-0.1608,-0.1552,-0.1527,-0.1524,-0.1505,-0.1504,-0.1504,-0.1466,-0.1466,-0.1465,-0.1465,-0.1417,-0.1415,-0.1414,-0.1417,0,0,-0.141,-0.1409,0,0,0,0,0,0,0,0,-0.1578,-0.1574,-0.1531,-0.1528,-0.1525,-0.1491,-0.1507,-0.1474,-0.1467,-0.1488,-0.1465,-0.1464,-0.1441,-0.1438,-0.143,-0.1414,-0.1412,-0.1409,-0.1409,-0.1408,-0.1408,0,0,0,0,0,0,0,-0.158,-0.1575,-0.1533,-0.153,-0.1527,-0.1518,-0.1512,-0.15,-0.1468,-0.1486,-0.1483,-0.1478,-0.144,-0.1432,-0.1429,-0.1411,-0.141,-0.1408,-0.1407,-0.1407,-0.1398,-0.1398,0,0,0,0,0,0,-0.1586,-0.1578,-0.1535,-0.1532,-0.1551,-0.1517,-0.1511,-0.1502,-0.1469,-0.1463,-0.1479,-0.1477,-0.1435,-0.1431,-0.1427,-0.1429,-0.1408,-0.1407,-0.1406,-0.1397,-0.1398,-0.1398,0,0,0,0,0,0,-0.1588,-0.1583,-0.1537,-0.1554,-0.1547,-0.1517,-0.1507,-0.1502,-0.1494,-0.1463,-0.1457,-0.1477,-0.1434,-0.1429,-0.142,-0.1427,-0.1406,-0.1405,-0.1396,-0.1397,-0.1398,-0.1433,0,0,0,0,0,0,-0.1589,-0.1583,-0.1584,-0.1554,-0.1547,-0.153,-0.1508,-0.1501,-0.1492,-0.1488,-0.1459,-0.1454,-0.1433,-0.1422,-0.1419,-0.1425,-0.1404,-0.1395,-0.1397,-0.1398,-0.1431,-0.1435,-0.1439,0,0,0,0,0,-0.1592,-0.1595,-0.1584,-0.1579,-0.1547,-0.1531,-0.1526,-0.1503,-0.1492,-0.1493,-0.1473,-0.1455,-0.1427,-0.1422,-0.1417,-0.1423,-0.1395,-0.1396,-0.1398,-0.143,-0.1435,-0.1439,0,0,0,0,0,0,-0.1625,-0.1591,-0.1578,-0.1572,-0.1555,-0.1525,-0.1524,-0.1508,-0.1493,-0.1491,-0.1461,-0.1455,-0.145,-0.1435,-0.143,-0.1425,-0.1409,-0.1409,-0.1435,-0.1439,-0.1443,-0.1446,-0.1402,0,0,0,0,0,-0.1632,-0.1623,-0.1593,-0.159,-0.1582,-0.1555,-0.1547,-0.1531,-0.1511,-0.1504,-0.1483,-0.1466,-0.1453,-0.1445,-0.1431,-0.1429,-0.1423,-0.1431,-0.1435,-0.1438,-0.1439,-0.1439,-0.1442,-0.1403,-0.1403,-0.1403,0,0,-0.1646,-0.1626,-0.1621,-0.1597,-0.1581,-0.1572,-0.1549,-0.154,-0.1533,-0.1502,-0.1493,-0.1478,-0.1456,-0.1451,-0.1448,-0.1439,-0.1449,-0.144,-0.1442,-0.1442,-0.144,-0.1444,-0.1448,-0.1404,-0.1404,-0.1403,0,0,-0.1667,-0.165,-0.1647,-0.1633,-0.1611,-0.1593,-0.1592,-0.1565,-0.1554,-0.1544,-0.1522,-0.1513,-0.1491,-0.1477,-0.1467,-0.1486,-0.1469,-0.1482,-0.1501,-0.1501,-0.1504,-0.1507,-0.1515,-0.1518,-0.1483,-0.1483,-0.1483,0,-0.1687,-0.1673,-0.1648,-0.1641,-0.1631,-0.1604,-0.1601,-0.1588,-0.1563,-0.1557,-0.1547,-0.1521,-0.1504,-0.1496,-0.1501,-0.1493,-0.1493,-0.1485,-0.1506,-0.1508,-0.151,-0.1518,-0.1521,-0.1485,-0.1484,-0.1484,-0.1484,0,-0.1699,-0.169,-0.169,-0.1667,-0.1658,-0.1653,-0.1628,-0.1621,-0.1606,-0.1589,-0.1581,-0.156,-0.1543,-0.1539,-0.1524,-0.153,-0.1526,-0.1511,-0.1494,-0.1517,-0.1523,-0.1525,-0.1487,-0.1487,-0.1486,-0.1486,0,0,-0.174,-0.1704,-0.1705,-0.1695,-0.1669,-0.1662,-0.1656,-0.164,-0.1636,-0.1619,-0.1615,-0.1598,-0.1585,-0.1574,-0.1557,-0.1557,-0.1575,-0.1543,-0.1542,-0.155,-0.1582,-0.1594,-0.1598,-0.1563,-0.1564,-0.1564,-0.1585,0,-0.1757,-0.1746,-0.1725,-0.1721,-0.1713,-0.1687,-0.1683,-0.1667,-0.1652,-0.1643,-0.1626,-0.1615,-0.1598,-0.1592,-0.1591,-0.1573,-0.1581,-0.1571,-0.156,-0.1559,-0.1567,-0.1601,-0.1613,-0.1633,-0.1587,-0.1587,-0.1588,0,-0.1776,-0.1763,-0.1759,-0.1735,-0.1731,-0.1727,-0.1712,-0.1703,-0.1685,-0.1674,-0.1663,-0.1645,-0.1638,-0.1623,-0.1615,-0.1609,-0.1603,-0.1593,-0.1594,-0.1592,-0.1575,-0.1602,-0.1639,-0.1643,-0.1591,-0.1591,-0.1591,0,-0.1808,-0.1789,-0.1784,-0.1776,-0.1748,-0.1747,-0.1735,-0.1716,-0.1709,-0.1695,-0.169,-0.1676,-0.1668,-0.1658,-0.1637,-0.1627,-0.1632,-0.1614,-0.1623,-0.1624,-0.1625,-0.1626,-0.1664,-0.162,-0.162,-0.162,-0.162,0,-0.1831,-0.183,-0.1798,-0.1795,-0.1794,-0.1769,-0.1768,-0.1754,-0.1738,-0.1733,-0.171,-0.1705,-0.1677,-0.1669,-0.1652,-0.1649,-0.1645,-0.1637,-0.1633,-0.164,-0.1641,-0.1636,-0.1634,-0.1621,-0.1621,-0.162,-0.162,0,-0.1866,-0.1845,-0.1838,-0.1813,-0.1807,-0.1807,-0.1786,-0.1782,-0.1766,-0.176,-0.1757,-0.1732,-0.1722,-0.17,-0.1683,-0.1672,-0.1674,-0.1665,-0.168,-0.1678,-0.1689,-0.1689,-0.1726,-0.173,-0.1683,-0.1684,-0.1684,0,-0.1882,-0.1881,-0.1856,-0.1851,-0.1841,-0.1833,-0.1826,-0.1802,-0.1795,-0.1776,-0.1775,-0.1764,-0.1753,-0.1739,-0.1719,-0.1707,-0.1699,-0.1713,-0.1697,-0.1705,-0.1701,-0.1702,-0.1702,-0.1717,-0.1717,-0.1718,-0.1718,0,-0.1914,-0.1904,-0.1895,-0.1882,-0.1874,-0.1863,-0.185,-0.1847,-0.1821,-0.1815,-0.1805,-0.1797,-0.1781,-0.1771,-0.1756,-0.1744,-0.1728,-0.1724,-0.1725,-0.1733,-0.1742,-0.1739,-0.1691,-0.1723,-0.1722,-0.1722,-0.1722,-0.1722,-0.1941,-0.194,-0.1923,-0.1913,-0.1902,-0.1891,-0.1887,-0.1872,-0.1863,-0.1849,-0.1835,-0.1828,-0.1811,-0.179,-0.178,-0.1773,-0.1765,-0.1767,-0.1767,-0.1769,-0.1773,-0.1743,-0.177,-0.177,-0.177,-0.177,-0.177,0,-0.1973,-0.1961,-0.1953,-0.1937,-0.193,-0.1915,-0.1901,-0.1896,-0.189,-0.1876,-0.1867,-0.1857,-0.1847,-0.1827,-0.1816,-0.1815,-0.1807,-0.1813,-0.1813,-0.1811,-0.178,-0.1781,-0.1819,-0.1819,-0.1819,-0.1819,-0.1819,-0.1819,-0.1989,-0.1986,-0.1975,-0.1967,-0.1955,-0.1947,-0.1941,-0.1931,-0.192,-0.191,-0.1902,-0.189,-0.1874,-0.1862,-0.1852,-0.1847,-0.1844,-0.1853,-0.1845,-0.1817,-0.1813,-0.1808,-0.1808,-0.1852,-0.1852,-0.1877,-0.1877,-0.1877]},{"header":{"parameterUnit":"m.s-1","parameterCategory":1,"la1":30.2991,"la2":30.254,"lo1":-89.0895,"lo2":-89.0444,"dy":0.0017,"dx":0.0017,"nx":28,"ny":28,"refTime":"2025-11-13T03:00:00:Z","depth":0,"parameterNumber":3,"parameterNumberName":"V-component_of_WINDS"},"data":[0,0,0,0,0,0,0,0,0,0,0,0,0,0,0,0,0,0,0,0,0,0,0,0,0,0,0,0,0,0,0,0,0,0,0,0,0,0,0,0,0,0,0,0,0,0,0,0,0,0,0,0,0,0,0,0,0,0,1.59,1.59,0,1.5899,1.5899,1.5899,1.5926,1.5926,1.5927,1.5928,1.5923,1.5923,1.5922,0,0,0,0,0,0,0,0,0,0,0,0,0,1.5918,1.5918,1.59,1.59,1.59,1.59,1.5899,1.5899,1.5925,1.5926,1.5927,1.5928,1.5924,1.5923,1.5922,0,0,0,0,0,0,0,0,0,0,0,0,0,1.5913,1.5918,1.59,1.5913,1.5914,1.59,1.5899,1.5899,1.5925,1.5926,1.5927,1.5928,1.5924,1.5923,1.5922,1.5894,0,0,1.5918,1.5918,0,0,0,0,0,0,0,0,1.5914,1.5913,1.5911,1.5912,1.5913,1.5914,1.5905,1.5897,1.5925,1.5921,1.5928,1.5929,1.5919,1.5918,1.5916,1.5893,1.5893,1.5918,1.5917,1.5917,1.5916,0,0,0,0,0,0,0,1.5914,1.5913,1.5899,1.5911,1.5912,1.5917,1.5918,1.5903,1.5914,1.5921,1.5923,1.5923,1.592,1.5917,1.5916,1.5893,1.5918,1.5917,1.5916,1.5916,1.5847,1.5846,0,0,0,0,0,0,1.5913,1.5913,1.5899,1.5899,1.5916,1.5916,1.5917,1.5912,1.5914,1.5915,1.5922,1.5924,1.5918,1.5917,1.5916,1.5883,1.5917,1.5916,1.5915,1.5848,1.5847,1.5845,0,0,0,0,0,0,1.5913,1.5912,1.5899,1.5907,1.5906,1.5915,1.591,1.5912,1.5909,1.5915,1.5916,1.5917,1.5919,1.5917,1.5899,1.5883,1.5915,1.5914,1.5849,1.5848,1.5846,1.5816,0,0,0,0,0,0,1.5914,1.5912,1.5902,1.5906,1.5905,1.5884,1.5909,1.5911,1.5907,1.591,1.5911,1.5912,1.592,1.5901,1.5898,1.5882,1.5913,1.5851,1.5849,1.5847,1.5818,1.5813,1.5809,0,0,0,0,0,1.5914,1.5893,1.5901,1.5899,1.5893,1.5883,1.5882,1.5893,1.5906,1.5896,1.59,1.5912,1.5885,1.5899,1.5896,1.5879,1.5852,1.5849,1.5847,1.582,1.5814,1.5809,0,0,0,0,0,0,1.5884,1.5893,1.5903,1.5882,1.5882,1.5887,1.5874,1.5886,1.588,1.5883,1.5895,1.5895,1.5874,1.5875,1.589,1.5852,1.5871,1.5868,1.5852,1.5846,1.5842,1.5841,1.5912,0,0,0,0,0,1.5876,1.5867,1.5875,1.5856,1.5856,1.5865,1.5861,1.5869,1.5868,1.5868,1.587,1.5868,1.5859,1.5853,1.5845,1.5819,1.5819,1.5806,1.5802,1.5798,1.5794,1.578,1.5774,1.5837,1.5837,1.5837,0,0,1.5857,1.5861,1.5854,1.585,1.5851,1.5841,1.5864,1.5853,1.5845,1.5866,1.5849,1.585,1.5849,1.5826,1.5816,1.5826,1.5777,1.5794,1.5791,1.579,1.5776,1.577,1.5765,1.5835,1.5836,1.5836,0,0,1.5817,1.582,1.5804,1.5805,1.5806,1.5812,1.5808,1.5812,1.5815,1.5798,1.5813,1.5804,1.5788,1.5786,1.5783,1.5744,1.5754,1.5741,1.5716,1.5702,1.5697,1.5692,1.5677,1.5671,1.5737,1.5737,1.5737,0,1.5793,1.578,1.5794,1.5782,1.5779,1.5799,1.5782,1.5781,1.5779,1.5776,1.5788,1.5769,1.5769,1.5746,1.5736,1.5734,1.5729,1.574,1.5696,1.5692,1.5688,1.5674,1.5668,1.5736,1.5736,1.5736,1.5736,0,1.575,1.5741,1.5728,1.5726,1.5722,1.5708,1.5718,1.5712,1.5721,1.5726,1.5709,1.571,1.5702,1.5698,1.5706,1.5676,1.5682,1.5695,1.5714,1.568,1.5667,1.5661,1.5733,1.5734,1.5734,1.5735,0,0,1.569,1.5698,1.5693,1.5693,1.5695,1.5688,1.5674,1.5668,1.5662,1.566,1.5648,1.5635,1.5647,1.5643,1.5651,1.5639,1.5606,1.5653,1.5653,1.5643,1.5572,1.5561,1.5555,1.5614,1.5613,1.5612,1.5572,0,1.5651,1.5629,1.5642,1.5617,1.5608,1.5627,1.5615,1.5614,1.5619,1.5611,1.5615,1.5605,1.5623,1.5621,1.5609,1.5613,1.5592,1.5616,1.5601,1.56,1.56,1.5548,1.5537,1.5498,1.5567,1.5566,1.5565,0,1.5603,1.56,1.5575,1.558,1.5576,1.5565,1.5561,1.5553,1.5553,1.5557,1.5553,1.5565,1.555,1.557,1.5549,1.5565,1.556,1.5561,1.556,1.5557,1.558,1.5543,1.5486,1.548,1.5557,1.5558,1.5558,0,1.5561,1.5551,1.5534,1.5533,1.5539,1.553,1.5532,1.5533,1.5528,1.5524,1.5521,1.5515,1.5511,1.5505,1.5514,1.5528,1.5491,1.5512,1.5492,1.5492,1.5483,1.5483,1.5423,1.5481,1.5482,1.5482,1.5482,0,1.5515,1.5499,1.5515,1.5505,1.5487,1.5501,1.5482,1.5486,1.5486,1.5476,1.5492,1.5482,1.5494,1.5485,1.5492,1.5473,1.5471,1.5473,1.5474,1.547,1.547,1.5466,1.5468,1.548,1.548,1.5481,1.5481,0,1.5464,1.5475,1.5458,1.5465,1.5466,1.5452,1.5458,1.5448,1.5454,1.544,1.5438,1.5447,1.5437,1.5445,1.5435,1.5439,1.5414,1.542,1.5414,1.5415,1.5395,1.5396,1.5329,1.532,1.5385,1.5385,1.5384,0,1.5434,1.5422,1.5428,1.5423,1.5424,1.5415,1.5411,1.5425,1.5419,1.5419,1.5408,1.54,1.5394,1.5376,1.5381,1.5373,1.5378,1.5355,1.5376,1.5373,1.5376,1.5376,1.5374,1.535,1.5349,1.5348,1.5348,0,1.5378,1.5385,1.5379,1.5375,1.537,1.5367,1.5366,1.536,1.5374,1.5367,1.5358,1.5353,1.5343,1.5334,1.5328,1.5328,1.5339,1.5341,1.5336,1.5331,1.5328,1.5328,1.5401,1.5342,1.5343,1.5343,1.5344,1.5344,1.5336,1.5326,1.5329,1.5322,1.5322,1.532,1.5311,1.5317,1.531,1.5303,1.5312,1.53,1.5299,1.5292,1.5291,1.5281,1.529,1.5283,1.5281,1.5278,1.5275,1.5331,1.528,1.528,1.528,1.528,1.528,0,1.5281,1.5284,1.5277,1.5275,1.5269,1.5283,1.5282,1.5275,1.5265,1.5264,1.5258,1.5247,1.5238,1.5242,1.5234,1.5225,1.523,1.5223,1.5223,1.5222,1.5267,1.5272,1.5219,1.5219,1.5219,1.5219,1.5219,1.5219,1.5251,1.5235,1.5241,1.5225,1.5227,1.5217,1.5215,1.5213,1.5212,1.5199,1.5193,1.5196,1.5197,1.5189,1.5181,1.5183,1.5178,1.5168,1.5171,1.5213,1.5219,1.5225,1.5229,1.5168,1.5168,1.5127,1.5127,1.5126]}]]